owner,sensor,date,latitude,longitude,vertical_datum,sea_water_practical_salinity,qcFlag 
SCCF RECON,ioos:station:SCCF:13:1,2008-05-01T00:00:00Z,26.5255,-82.0032,2.34,36.01,1111122 
SCCF RECON,ioos:station:SCCF:13:1,2008-05-01T01:00:00Z,26.5255,-82.0032,2.371,36.21,1111122 
SCCF RECON,ioos:station:SCCF:13:1,2008-05-01T02:00:00Z,26.5255,-82.0032,2.399,36.63,1111122 
SCCF RECON,ioos:station:SCCF:13:1,2008-05-01T03:00:00Z,26.5255,-82.0032,2.396,36.82,1111122 
SCCF RECON,ioos:station:SCCF:13:1,2008-05-01T04:00:00Z,26.5255,-82.0032,2.344,36.95,1111122 
SCCF RECON,ioos:station:SCCF:13:1,2008-05-01T05:00:00Z,26.5255,-82.0032,2.28,37.01,1111122 
SCCF RECON,ioos:station:SCCF:13:1,2008-05-01T06:00:00Z,26.5255,-82.0032,2.2,36.56,1111122 
SCCF RECON,ioos:station:SCCF:13:1,2008-05-01T07:00:00Z,26.5255,-82.0032,2.12,35.97,1111122 
SCCF RECON,ioos:station:SCCF:13:1,2008-05-01T08:00:00Z,26.5255,-82.0032,2.054,34.57,1111122 
SCCF RECON,ioos:station:SCCF:13:1,2008-05-01T09:00:00Z,26.5255,-82.0032,2.0,34.17,1111122 
SCCF RECON,ioos:station:SCCF:13:1,2008-05-01T10:00:00Z,26.5255,-82.0032,2.0,33.68,1111122 
SCCF RECON,ioos:station:SCCF:13:1,2008-05-01T11:00:00Z,26.5255,-82.0032,2.138,33.13,1111122 
SCCF RECON,ioos:station:SCCF:13:1,2008-05-01T12:00:00Z,26.5255,-82.0032,2.24,33.6,1111122 
SCCF RECON,ioos:station:SCCF:13:1,2008-05-01T13:00:00Z,26.5255,-82.0032,2.317,34.89,1111122 
SCCF RECON,ioos:station:SCCF:13:1,2008-05-01T14:00:00Z,26.5255,-82.0032,2.404,35.84,1111122 
SCCF RECON,ioos:station:SCCF:13:1,2008-05-01T15:00:00Z,26.5255,-82.0032,2.47,37.21,1111122 
SCCF RECON,ioos:station:SCCF:13:1,2008-05-01T16:00:00Z,26.5255,-82.0032,2.49,37.4,1111122 
SCCF RECON,ioos:station:SCCF:13:1,2008-05-01T17:00:00Z,26.5255,-82.0032,2.449,37.4,1111122 
SCCF RECON,ioos:station:SCCF:13:1,2008-05-01T18:00:00Z,26.5255,-82.0032,2.35,37.4,1111122 
SCCF RECON,ioos:station:SCCF:13:1,2008-05-01T19:00:00Z,26.5255,-82.0032,2.259,37.37,1111122 
SCCF RECON,ioos:station:SCCF:13:1,2008-05-01T20:00:00Z,26.5255,-82.0032,2.2,37.17,1111122 
SCCF RECON,ioos:station:SCCF:13:1,2008-05-01T21:00:00Z,26.5255,-82.0032,2.16,35.7,1111122 
SCCF RECON,ioos:station:SCCF:13:1,2008-05-01T22:00:00Z,26.5255,-82.0032,2.163,35.04,1111122 
SCCF RECON,ioos:station:SCCF:13:1,2008-05-01T23:00:00Z,26.5255,-82.0032,2.23,35.08,1111122 
SCCF RECON,ioos:station:SCCF:13:1,2008-05-02T00:00:00Z,26.5255,-82.0032,2.32,35.02,1111122 
SCCF RECON,ioos:station:SCCF:13:1,2008-05-02T01:00:00Z,26.5255,-82.0032,2.382,36.47,1111122 
SCCF RECON,ioos:station:SCCF:13:1,2008-05-02T02:00:00Z,26.5255,-82.0032,2.44,36.86,1111122 
SCCF RECON,ioos:station:SCCF:13:1,2008-05-02T03:00:00Z,26.5255,-82.0032,2.48,37.12,1111122 
SCCF RECON,ioos:station:SCCF:13:1,2008-05-02T04:00:00Z,26.5255,-82.0032,2.487,37.47,1111122 
SCCF RECON,ioos:station:SCCF:13:1,2008-05-02T05:00:00Z,26.5255,-82.0032,2.43,37.54,1111122 
SCCF RECON,ioos:station:SCCF:13:1,2008-05-02T06:00:00Z,26.5255,-82.0032,2.33,37.48,1111122 
SCCF RECON,ioos:station:SCCF:13:1,2008-05-02T07:00:00Z,26.5255,-82.0032,2.24,37.53,1111122 
SCCF RECON,ioos:station:SCCF:13:1,2008-05-02T08:00:00Z,26.5255,-82.0032,2.18,36.81,1111122 
SCCF RECON,ioos:station:SCCF:13:1,2008-05-02T09:00:00Z,26.5255,-82.0032,2.13,35.92,1111122 
SCCF RECON,ioos:station:SCCF:13:1,2008-05-02T10:00:00Z,26.5255,-82.0032,2.12,35.63,1111122 
SCCF RECON,ioos:station:SCCF:13:1,2008-05-02T11:00:00Z,26.5255,-82.0032,2.22,35.31,1111122 
SCCF RECON,ioos:station:SCCF:13:1,2008-05-02T12:00:00Z,26.5255,-82.0032,2.34,35.39,1111122 
SCCF RECON,ioos:station:SCCF:13:1,2008-05-02T13:00:00Z,26.5255,-82.0032,2.42,36.03,1111122 
SCCF RECON,ioos:station:SCCF:13:1,2008-05-02T14:00:00Z,26.5255,-82.0032,2.508,37.05,1111122 
SCCF RECON,ioos:station:SCCF:13:1,2008-05-02T15:00:00Z,26.5255,-82.0032,2.59,37.55,1111122 
SCCF RECON,ioos:station:SCCF:13:1,2008-05-02T16:00:00Z,26.5255,-82.0032,2.638,37.65,1111122 
SCCF RECON,ioos:station:SCCF:13:1,2008-05-02T17:00:00Z,26.5255,-82.0032,2.61,37.66,1111122 
SCCF RECON,ioos:station:SCCF:13:1,2008-05-02T18:00:00Z,26.5255,-82.0032,2.5,37.66,1111122 
SCCF RECON,ioos:station:SCCF:13:1,2008-05-02T19:00:00Z,26.5255,-82.0032,2.39,37.66,1111122 
SCCF RECON,ioos:station:SCCF:13:1,2008-05-02T20:00:00Z,26.5255,-82.0032,2.31,37.63,1111122 
SCCF RECON,ioos:station:SCCF:13:1,2008-05-02T21:00:00Z,26.5255,-82.0032,2.23,37.24,1111122 
SCCF RECON,ioos:station:SCCF:13:1,2008-05-02T22:00:00Z,26.5255,-82.0032,2.168,36.81,1111122 
SCCF RECON,ioos:station:SCCF:13:1,2008-05-02T23:00:00Z,26.5255,-82.0032,2.16,36.74,1111122 
SCCF RECON,ioos:station:SCCF:13:1,2008-05-03T00:00:00Z,26.5255,-82.0032,2.262,36.24,1111122 
SCCF RECON,ioos:station:SCCF:13:1,2008-05-03T01:00:00Z,26.5255,-82.0032,2.38,36.16,1111122 
SCCF RECON,ioos:station:SCCF:13:1,2008-05-03T02:00:00Z,26.5255,-82.0032,2.46,36.45,1111122 
SCCF RECON,ioos:station:SCCF:13:1,2008-05-03T03:00:00Z,26.5255,-82.0032,2.53,36.98,1111122 
SCCF RECON,ioos:station:SCCF:13:1,2008-05-03T04:00:00Z,26.5255,-82.0032,2.58,37.52,1111122 
SCCF RECON,ioos:station:SCCF:13:1,2008-05-03T05:00:00Z,26.5255,-82.0032,2.57,37.63,1111122 
SCCF RECON,ioos:station:SCCF:13:1,2008-05-03T06:00:00Z,26.5255,-82.0032,2.47,37.65,1111122 
SCCF RECON,ioos:station:SCCF:13:1,2008-05-03T07:00:00Z,26.5255,-82.0032,2.37,37.66,1111122 
SCCF RECON,ioos:station:SCCF:13:1,2008-05-03T08:00:00Z,26.5255,-82.0032,2.29,37.6,1111122 
SCCF RECON,ioos:station:SCCF:13:1,2008-05-03T09:00:00Z,26.5255,-82.0032,2.24,37.41,1111122 
SCCF RECON,ioos:station:SCCF:13:1,2008-05-03T10:00:00Z,26.5255,-82.0032,2.2,36.72,1111122 
SCCF RECON,ioos:station:SCCF:13:1,2008-05-03T11:00:00Z,26.5255,-82.0032,2.218,36.31,1111122 
SCCF RECON,ioos:station:SCCF:13:1,2008-05-03T12:00:00Z,26.5255,-82.0032,2.332,36.06,1111122 
SCCF RECON,ioos:station:SCCF:13:1,2008-05-03T13:00:00Z,26.5255,-82.0032,2.45,36.28,1111122 
SCCF RECON,ioos:station:SCCF:13:1,2008-05-03T14:00:00Z,26.5255,-82.0032,2.53,36.92,1111122 
SCCF RECON,ioos:station:SCCF:13:1,2008-05-03T15:00:00Z,26.5255,-82.0032,2.597,37.47,1111122 
SCCF RECON,ioos:station:SCCF:13:1,2008-05-03T16:00:00Z,26.5255,-82.0032,2.646,37.69,1111122 
SCCF RECON,ioos:station:SCCF:13:1,2008-05-03T17:00:00Z,26.5255,-82.0032,2.65,37.7,1111122 
SCCF RECON,ioos:station:SCCF:13:1,2008-05-03T18:00:00Z,26.5255,-82.0032,2.57,37.71,1111122 
SCCF RECON,ioos:station:SCCF:13:1,2008-05-03T19:00:00Z,26.5255,-82.0032,2.439,37.67,1111122 
SCCF RECON,ioos:station:SCCF:13:1,2008-05-03T20:00:00Z,26.5255,-82.0032,2.34,37.69,1111122 
SCCF RECON,ioos:station:SCCF:13:1,2008-05-03T21:00:00Z,26.5255,-82.0032,2.251,37.67,1111122 
SCCF RECON,ioos:station:SCCF:13:1,2008-05-03T22:00:00Z,26.5255,-82.0032,2.162,37.69,1111122 
SCCF RECON,ioos:station:SCCF:13:1,2008-05-03T23:00:00Z,26.5255,-82.0032,2.1,37.11,1111122 
SCCF RECON,ioos:station:SCCF:13:1,2008-05-04T00:00:00Z,26.5255,-82.0032,2.08,36.58,1111122 
SCCF RECON,ioos:station:SCCF:13:1,2008-05-04T01:00:00Z,26.5255,-82.0032,2.2,36.32,1111122 
SCCF RECON,ioos:station:SCCF:13:1,2008-05-04T02:00:00Z,26.5255,-82.0032,2.37,36.21,1111122 
SCCF RECON,ioos:station:SCCF:13:1,2008-05-04T03:00:00Z,26.5255,-82.0032,2.45,36.93,1111122 
SCCF RECON,ioos:station:SCCF:13:1,2008-05-04T04:00:00Z,26.5255,-82.0032,2.51,37.19,1111122 
SCCF RECON,ioos:station:SCCF:13:1,2008-05-04T05:00:00Z,26.5255,-82.0032,2.55,37.61,1111122 
SCCF RECON,ioos:station:SCCF:13:1,2008-05-04T06:00:00Z,26.5255,-82.0032,2.542,37.69,1111122 
SCCF RECON,ioos:station:SCCF:13:1,2008-05-04T07:00:00Z,26.5255,-82.0032,2.48,37.72,1111122 
SCCF RECON,ioos:station:SCCF:13:1,2008-05-04T08:00:00Z,26.5255,-82.0032,2.38,37.72,1111122 
SCCF RECON,ioos:station:SCCF:13:1,2008-05-04T09:00:00Z,26.5255,-82.0032,2.31,37.7,1111122 
SCCF RECON,ioos:station:SCCF:13:1,2008-05-04T10:00:00Z,26.5255,-82.0032,2.27,37.34,1111122 
SCCF RECON,ioos:station:SCCF:13:1,2008-05-04T11:00:00Z,26.5255,-82.0032,2.27,36.86,1111122 
SCCF RECON,ioos:station:SCCF:13:1,2008-05-04T12:00:00Z,26.5255,-82.0032,2.32,36.7,1111122 
SCCF RECON,ioos:station:SCCF:13:1,2008-05-04T13:00:00Z,26.5255,-82.0032,2.42,36.49,1111122 
SCCF RECON,ioos:station:SCCF:13:1,2008-05-04T14:00:00Z,26.5255,-82.0032,2.52,36.68,1111122 
SCCF RECON,ioos:station:SCCF:13:1,2008-05-04T15:00:00Z,26.5255,-82.0032,2.598,37.45,1111122 
SCCF RECON,ioos:station:SCCF:13:1,2008-05-04T16:00:00Z,26.5255,-82.0032,2.652,37.61,1111122 
SCCF RECON,ioos:station:SCCF:13:1,2008-05-04T17:00:00Z,26.5255,-82.0032,2.68,37.72,1111122 
SCCF RECON,ioos:station:SCCF:13:1,2008-05-04T18:00:00Z,26.5255,-82.0032,2.631,37.72,1111122 
SCCF RECON,ioos:station:SCCF:13:1,2008-05-04T19:00:00Z,26.5255,-82.0032,2.49,37.72,1111122 
SCCF RECON,ioos:station:SCCF:13:1,2008-05-04T20:00:00Z,26.5255,-82.0032,2.362,37.71,1111122 
SCCF RECON,ioos:station:SCCF:13:1,2008-05-04T21:00:00Z,26.5255,-82.0032,2.258,37.7,1111122 
SCCF RECON,ioos:station:SCCF:13:1,2008-05-04T22:00:00Z,26.5255,-82.0032,2.159,37.63,1111122 
SCCF RECON,ioos:station:SCCF:13:1,2008-05-04T23:00:00Z,26.5255,-82.0032,2.069,37.13,1111122 
SCCF RECON,ioos:station:SCCF:13:1,2008-05-05T00:00:00Z,26.5255,-82.0032,1.998,36.76,1111122 
SCCF RECON,ioos:station:SCCF:13:1,2008-05-05T01:00:00Z,26.5255,-82.0032,1.98,36.0,1111122 
SCCF RECON,ioos:station:SCCF:13:1,2008-05-05T02:00:00Z,26.5255,-82.0032,2.09,35.36,1111122 
SCCF RECON,ioos:station:SCCF:13:1,2008-05-05T03:00:00Z,26.5255,-82.0032,2.236,34.95,1111122 
SCCF RECON,ioos:station:SCCF:13:1,2008-05-05T04:00:00Z,26.5255,-82.0032,2.33,35.77,1111122 
SCCF RECON,ioos:station:SCCF:13:1,2008-05-05T05:00:00Z,26.5255,-82.0032,2.4,36.28,1111122 
SCCF RECON,ioos:station:SCCF:13:1,2008-05-05T06:00:00Z,26.5255,-82.0032,2.44,37.02,1111122 
SCCF RECON,ioos:station:SCCF:13:1,2008-05-05T07:00:00Z,26.5255,-82.0032,2.42,37.61,1111122 
SCCF RECON,ioos:station:SCCF:13:1,2008-05-05T08:00:00Z,26.5255,-82.0032,2.35,37.71,1111122 
SCCF RECON,ioos:station:SCCF:13:1,2008-05-05T09:00:00Z,26.5255,-82.0032,2.29,37.68,1111122 
SCCF RECON,ioos:station:SCCF:13:1,2008-05-05T10:00:00Z,26.5255,-82.0032,2.24,37.59,1111122 
SCCF RECON,ioos:station:SCCF:13:1,2008-05-05T11:00:00Z,26.5255,-82.0032,2.21,36.9,1111122 
SCCF RECON,ioos:station:SCCF:13:1,2008-05-05T12:00:00Z,26.5255,-82.0032,2.21,36.64,1111122 
SCCF RECON,ioos:station:SCCF:13:1,2008-05-05T13:00:00Z,26.5255,-82.0032,2.29,35.88,1111122 
SCCF RECON,ioos:station:SCCF:13:1,2008-05-05T14:00:00Z,26.5255,-82.0032,2.42,36.56,1111122 
SCCF RECON,ioos:station:SCCF:13:1,2008-05-05T15:00:00Z,26.5255,-82.0032,2.51,37.06,1111122 
SCCF RECON,ioos:station:SCCF:13:1,2008-05-05T16:00:00Z,26.5255,-82.0032,2.575,37.51,1111122 
SCCF RECON,ioos:station:SCCF:13:1,2008-05-05T17:00:00Z,26.5255,-82.0032,2.613,37.61,1111122 
SCCF RECON,ioos:station:SCCF:13:1,2008-05-05T18:00:00Z,26.5255,-82.0032,2.62,37.67,1111122 
SCCF RECON,ioos:station:SCCF:13:1,2008-05-05T19:00:00Z,26.5255,-82.0032,2.541,37.68,1111122 
SCCF RECON,ioos:station:SCCF:13:1,2008-05-05T20:00:00Z,26.5255,-82.0032,2.41,37.68,1111122 
SCCF RECON,ioos:station:SCCF:13:1,2008-05-05T21:00:00Z,26.5255,-82.0032,2.295,37.68,1111122 
SCCF RECON,ioos:station:SCCF:13:1,2008-05-05T22:00:00Z,26.5255,-82.0032,2.19,37.57,1111122 
SCCF RECON,ioos:station:SCCF:13:1,2008-05-05T23:00:00Z,26.5255,-82.0032,2.09,37.55,1111122 
SCCF RECON,ioos:station:SCCF:13:1,2008-05-06T00:00:00Z,26.5255,-82.0032,2.0,37.11,1111122 
SCCF RECON,ioos:station:SCCF:13:1,2008-05-06T01:00:00Z,26.5255,-82.0032,1.93,36.61,1111122 
SCCF RECON,ioos:station:SCCF:13:1,2008-05-06T02:00:00Z,26.5255,-82.0032,1.92,35.64,1111122 
SCCF RECON,ioos:station:SCCF:13:1,2008-05-06T03:00:00Z,26.5255,-82.0032,2.05,35.02,1111122 
SCCF RECON,ioos:station:SCCF:13:1,2008-05-06T04:00:00Z,26.5255,-82.0032,2.19,34.57,1111122 
SCCF RECON,ioos:station:SCCF:13:1,2008-05-06T05:00:00Z,26.5255,-82.0032,2.27,35.82,1111122 
SCCF RECON,ioos:station:SCCF:13:1,2008-05-06T06:00:00Z,26.5255,-82.0032,2.34,36.45,1111122 
SCCF RECON,ioos:station:SCCF:13:1,2008-05-06T07:00:00Z,26.5255,-82.0032,2.38,37.17,1111122 
SCCF RECON,ioos:station:SCCF:13:1,2008-05-06T08:00:00Z,26.5255,-82.0032,2.38,37.56,1111122 
SCCF RECON,ioos:station:SCCF:13:1,2008-05-06T09:00:00Z,26.5255,-82.0032,2.32,37.62,1111122 
SCCF RECON,ioos:station:SCCF:13:1,2008-05-06T10:00:00Z,26.5255,-82.0032,2.27,37.56,1111122 
SCCF RECON,ioos:station:SCCF:13:1,2008-05-06T11:00:00Z,26.5255,-82.0032,2.24,37.59,1111122 
SCCF RECON,ioos:station:SCCF:13:1,2008-05-06T12:00:00Z,26.5255,-82.0032,2.22,37.2,1111122 
SCCF RECON,ioos:station:SCCF:13:1,2008-05-06T13:00:00Z,26.5255,-82.0032,2.244,36.74,1111122 
SCCF RECON,ioos:station:SCCF:13:1,2008-05-06T14:00:00Z,26.5255,-82.0032,2.36,36.83,1111122 
SCCF RECON,ioos:station:SCCF:13:1,2008-05-06T15:00:00Z,26.5255,-82.0032,2.47,37.05,1111122 
SCCF RECON,ioos:station:SCCF:13:1,2008-05-06T16:00:00Z,26.5255,-82.0032,2.55,37.49,1111122 
SCCF RECON,ioos:station:SCCF:13:1,2008-05-06T17:00:00Z,26.5255,-82.0032,2.609,37.51,1111122 
SCCF RECON,ioos:station:SCCF:13:1,2008-05-06T18:00:00Z,26.5255,-82.0032,2.642,37.65,1111122 
SCCF RECON,ioos:station:SCCF:13:1,2008-05-06T19:00:00Z,26.5255,-82.0032,2.63,37.64,1111122 
SCCF RECON,ioos:station:SCCF:13:1,2008-05-06T20:00:00Z,26.5255,-82.0032,2.53,37.64,1111122 
SCCF RECON,ioos:station:SCCF:13:1,2008-05-06T21:00:00Z,26.5255,-82.0032,2.39,37.64,1111122 
SCCF RECON,ioos:station:SCCF:13:1,2008-05-06T22:00:00Z,26.5255,-82.0032,2.282,37.62,1111122 
SCCF RECON,ioos:station:SCCF:13:1,2008-05-06T23:00:00Z,26.5255,-82.0032,2.188,37.64,1111122 
SCCF RECON,ioos:station:SCCF:13:1,2008-05-07T00:00:00Z,26.5255,-82.0032,2.09,37.56,1111122 
SCCF RECON,ioos:station:SCCF:13:1,2008-05-07T01:00:00Z,26.5255,-82.0032,2.0,37.43,1111122 
SCCF RECON,ioos:station:SCCF:13:1,2008-05-07T02:00:00Z,26.5255,-82.0032,1.934,36.76,1111122 
SCCF RECON,ioos:station:SCCF:13:1,2008-05-07T03:00:00Z,26.5255,-82.0032,1.93,35.91,1111122 
SCCF RECON,ioos:station:SCCF:13:1,2008-05-07T04:00:00Z,26.5255,-82.0032,2.04,35.29,1111122 
SCCF RECON,ioos:station:SCCF:13:1,2008-05-07T05:00:00Z,26.5255,-82.0032,2.16,34.83,1111122 
SCCF RECON,ioos:station:SCCF:13:1,2008-05-07T06:00:00Z,26.5255,-82.0032,2.238,35.37,1111122 
SCCF RECON,ioos:station:SCCF:13:1,2008-05-07T07:00:00Z,26.5255,-82.0032,2.29,36.46,1111122 
SCCF RECON,ioos:station:SCCF:13:1,2008-05-07T08:00:00Z,26.5255,-82.0032,2.32,36.88,1111122 
SCCF RECON,ioos:station:SCCF:13:1,2008-05-07T09:00:00Z,26.5255,-82.0032,2.32,37.41,1111122 
SCCF RECON,ioos:station:SCCF:13:1,2008-05-07T10:00:00Z,26.5255,-82.0032,2.29,37.59,1111122 
SCCF RECON,ioos:station:SCCF:13:1,2008-05-07T11:00:00Z,26.5255,-82.0032,2.27,37.62,1111122 
SCCF RECON,ioos:station:SCCF:13:1,2008-05-07T12:00:00Z,26.5255,-82.0032,2.27,37.6,1111122 
SCCF RECON,ioos:station:SCCF:13:1,2008-05-07T13:00:00Z,26.5255,-82.0032,2.28,37.49,1111122 
SCCF RECON,ioos:station:SCCF:13:1,2008-05-07T14:00:00Z,26.5255,-82.0032,2.35,37.25,1111122 
SCCF RECON,ioos:station:SCCF:13:1,2008-05-07T15:00:00Z,26.5255,-82.0032,2.441,37.43,1111122 
SCCF RECON,ioos:station:SCCF:13:1,2008-05-07T16:00:00Z,26.5255,-82.0032,2.52,37.63,1111122 
SCCF RECON,ioos:station:SCCF:13:1,2008-05-07T17:00:00Z,26.5255,-82.0032,2.59,37.63,1111122 
SCCF RECON,ioos:station:SCCF:13:1,2008-05-07T18:00:00Z,26.5255,-82.0032,2.646,37.61,1111122 
SCCF RECON,ioos:station:SCCF:13:1,2008-05-07T19:00:00Z,26.5255,-82.0032,2.687,37.61,1111122 
SCCF RECON,ioos:station:SCCF:13:1,2008-05-07T20:00:00Z,26.5255,-82.0032,2.68,37.66,1111122 
SCCF RECON,ioos:station:SCCF:13:1,2008-05-07T21:00:00Z,26.5255,-82.0032,2.578,37.69,1111122 
SCCF RECON,ioos:station:SCCF:13:1,2008-05-07T22:00:00Z,26.5255,-82.0032,2.44,37.68,1111122 
SCCF RECON,ioos:station:SCCF:13:1,2008-05-07T23:00:00Z,26.5255,-82.0032,2.325,37.68,1111122 
SCCF RECON,ioos:station:SCCF:13:1,2008-05-08T00:00:00Z,26.5255,-82.0032,2.22,37.62,1111122 
SCCF RECON,ioos:station:SCCF:13:1,2008-05-08T01:00:00Z,26.5255,-82.0032,2.129,37.39,1111122 
SCCF RECON,ioos:station:SCCF:13:1,2008-05-08T02:00:00Z,26.5255,-82.0032,2.041,37.24,1111122 
SCCF RECON,ioos:station:SCCF:13:1,2008-05-08T03:00:00Z,26.5255,-82.0032,1.99,37.03,1111122 
SCCF RECON,ioos:station:SCCF:13:1,2008-05-08T04:00:00Z,26.5255,-82.0032,2.02,36.54,1111122 
SCCF RECON,ioos:station:SCCF:13:1,2008-05-08T05:00:00Z,26.5255,-82.0032,2.16,36.08,1111122 
SCCF RECON,ioos:station:SCCF:13:1,2008-05-08T06:00:00Z,26.5255,-82.0032,2.25,35.82,1111122 
SCCF RECON,ioos:station:SCCF:13:1,2008-05-08T07:00:00Z,26.5255,-82.0032,2.3,36.41,1111122 
SCCF RECON,ioos:station:SCCF:13:1,2008-05-08T08:00:00Z,26.5255,-82.0032,2.35,36.81,1111122 
SCCF RECON,ioos:station:SCCF:13:1,2008-05-08T09:00:00Z,26.5255,-82.0032,2.39,37.15,1111122 
SCCF RECON,ioos:station:SCCF:13:1,2008-05-08T10:00:00Z,26.5255,-82.0032,2.41,37.6,1111122 
SCCF RECON,ioos:station:SCCF:13:1,2008-05-08T11:00:00Z,26.5255,-82.0032,2.4,37.7,1111122 
SCCF RECON,ioos:station:SCCF:13:1,2008-05-08T12:00:00Z,26.5255,-82.0032,2.37,37.73,1111122 
SCCF RECON,ioos:station:SCCF:13:1,2008-05-08T13:00:00Z,26.5255,-82.0032,2.36,37.51,1111122 
SCCF RECON,ioos:station:SCCF:13:1,2008-05-08T14:00:00Z,26.5255,-82.0032,2.401,37.71,1111122 
SCCF RECON,ioos:station:SCCF:13:1,2008-05-08T15:00:00Z,26.5255,-82.0032,2.48,37.67,1111122 
SCCF RECON,ioos:station:SCCF:13:1,2008-05-08T16:00:00Z,26.5255,-82.0032,2.551,37.69,1111122 
SCCF RECON,ioos:station:SCCF:13:1,2008-05-08T17:00:00Z,26.5255,-82.0032,2.631,37.69,1111122 
SCCF RECON,ioos:station:SCCF:13:1,2008-05-08T18:00:00Z,26.5255,-82.0032,2.69,37.68,1111122 
SCCF RECON,ioos:station:SCCF:13:1,2008-05-08T19:00:00Z,26.5255,-82.0032,2.729,37.7,1111122 
SCCF RECON,ioos:station:SCCF:13:1,2008-05-08T20:00:00Z,26.5255,-82.0032,2.74,37.76,1111122 
SCCF RECON,ioos:station:SCCF:13:1,2008-05-08T21:00:00Z,26.5255,-82.0032,2.69,37.77,1111122 
SCCF RECON,ioos:station:SCCF:13:1,2008-05-08T22:00:00Z,26.5255,-82.0032,2.571,37.79,1111122 
SCCF RECON,ioos:station:SCCF:13:1,2008-05-08T23:00:00Z,26.5255,-82.0032,2.459,37.77,1111122 
SCCF RECON,ioos:station:SCCF:13:1,2008-05-09T00:00:00Z,26.5255,-82.0032,2.35,37.77,1111122 
SCCF RECON,ioos:station:SCCF:13:1,2008-05-09T01:00:00Z,26.5255,-82.0032,2.25,37.69,1111122 
SCCF RECON,ioos:station:SCCF:13:1,2008-05-09T02:00:00Z,26.5255,-82.0032,2.15,37.66,1111122 
SCCF RECON,ioos:station:SCCF:13:1,2008-05-09T03:00:00Z,26.5255,-82.0032,2.07,37.38,1111122 
SCCF RECON,ioos:station:SCCF:13:1,2008-05-09T04:00:00Z,26.5255,-82.0032,2.029,37.34,1111122 
SCCF RECON,ioos:station:SCCF:13:1,2008-05-09T05:00:00Z,26.5255,-82.0032,2.068,36.79,1111122 
SCCF RECON,ioos:station:SCCF:13:1,2008-05-09T06:00:00Z,26.5255,-82.0032,2.169,36.39,1111122 
SCCF RECON,ioos:station:SCCF:13:1,2008-05-09T07:00:00Z,26.5255,-82.0032,2.249,36.14,1111122 
SCCF RECON,ioos:station:SCCF:13:1,2008-05-09T08:00:00Z,26.5255,-82.0032,2.29,36.24,1111122 
SCCF RECON,ioos:station:SCCF:13:1,2008-05-09T09:00:00Z,26.5255,-82.0032,2.32,37.29,1111122 
SCCF RECON,ioos:station:SCCF:13:1,2008-05-09T10:00:00Z,26.5255,-82.0032,2.35,37.3,1111122 
SCCF RECON,ioos:station:SCCF:13:1,2008-05-09T11:00:00Z,26.5255,-82.0032,2.37,37.39,1111122 
SCCF RECON,ioos:station:SCCF:13:1,2008-05-09T12:00:00Z,26.5255,-82.0032,2.372,37.72,1111122 
SCCF RECON,ioos:station:SCCF:13:1,2008-05-09T13:00:00Z,26.5255,-82.0032,2.36,37.77,1111122 
SCCF RECON,ioos:station:SCCF:13:1,2008-05-09T14:00:00Z,26.5255,-82.0032,2.35,37.73,1111122 
SCCF RECON,ioos:station:SCCF:13:1,2008-05-09T15:00:00Z,26.5255,-82.0032,2.37,37.7,1111122 
SCCF RECON,ioos:station:SCCF:13:1,2008-05-09T16:00:00Z,26.5255,-82.0032,2.43,37.82,1111122 
SCCF RECON,ioos:station:SCCF:13:1,2008-05-09T17:00:00Z,26.5255,-82.0032,2.516,37.82,1111122 
SCCF RECON,ioos:station:SCCF:13:1,2008-05-09T18:00:00Z,26.5255,-82.0032,2.572,37.77,1111122 
SCCF RECON,ioos:station:SCCF:13:1,2008-05-09T19:00:00Z,26.5255,-82.0032,2.608,37.78,1111122 
SCCF RECON,ioos:station:SCCF:13:1,2008-05-09T20:00:00Z,26.5255,-82.0032,2.62,37.73,1111122 
SCCF RECON,ioos:station:SCCF:13:1,2008-05-09T21:00:00Z,26.5255,-82.0032,2.611,37.7,1111122 
SCCF RECON,ioos:station:SCCF:13:1,2008-05-09T22:00:00Z,26.5255,-82.0032,2.55,37.7,1111122 
SCCF RECON,ioos:station:SCCF:13:1,2008-05-09T23:00:00Z,26.5255,-82.0032,2.461,37.7,1111122 
SCCF RECON,ioos:station:SCCF:13:1,2008-05-10T00:00:00Z,26.5255,-82.0032,2.375,37.71,1111122 
SCCF RECON,ioos:station:SCCF:13:1,2008-05-10T01:00:00Z,26.5255,-82.0032,2.28,37.77,1111122 
SCCF RECON,ioos:station:SCCF:13:1,2008-05-10T02:00:00Z,26.5255,-82.0032,2.188,37.77,1111122 
SCCF RECON,ioos:station:SCCF:13:1,2008-05-10T03:00:00Z,26.5255,-82.0032,2.091,37.59,1111122 
SCCF RECON,ioos:station:SCCF:13:1,2008-05-10T04:00:00Z,26.5255,-82.0032,2.02,37.24,1111122 
SCCF RECON,ioos:station:SCCF:13:1,2008-05-10T05:00:00Z,26.5255,-82.0032,1.97,36.55,1111122 
SCCF RECON,ioos:station:SCCF:13:1,2008-05-10T06:00:00Z,26.5255,-82.0032,2.0,35.96,1111122 
SCCF RECON,ioos:station:SCCF:13:1,2008-05-10T07:00:00Z,26.5255,-82.0032,2.09,35.41,1111122 
SCCF RECON,ioos:station:SCCF:13:1,2008-05-10T08:00:00Z,26.5255,-82.0032,2.16,35.36,1111122 
SCCF RECON,ioos:station:SCCF:13:1,2008-05-10T09:00:00Z,26.5255,-82.0032,2.22,35.6,1111122 
SCCF RECON,ioos:station:SCCF:13:1,2008-05-10T10:00:00Z,26.5255,-82.0032,2.27,36.77,1111122 
SCCF RECON,ioos:station:SCCF:13:1,2008-05-10T11:00:00Z,26.5255,-82.0032,2.309,36.78,1111122 
SCCF RECON,ioos:station:SCCF:13:1,2008-05-10T12:00:00Z,26.5255,-82.0032,2.324,37.2,1111122 
SCCF RECON,ioos:station:SCCF:13:1,2008-05-10T13:00:00Z,26.5255,-82.0032,2.32,37.69,1111122 
SCCF RECON,ioos:station:SCCF:13:1,2008-05-10T14:00:00Z,26.5255,-82.0032,2.31,37.76,1111122 
SCCF RECON,ioos:station:SCCF:13:1,2008-05-10T15:00:00Z,26.5255,-82.0032,2.3,37.74,1111122 
SCCF RECON,ioos:station:SCCF:13:1,2008-05-10T16:00:00Z,26.5255,-82.0032,2.308,37.75,1111122 
SCCF RECON,ioos:station:SCCF:13:1,2008-05-10T17:00:00Z,26.5255,-82.0032,2.34,37.77,1111122 
SCCF RECON,ioos:station:SCCF:13:1,2008-05-10T18:00:00Z,26.5255,-82.0032,2.4,37.74,1111122 
SCCF RECON,ioos:station:SCCF:13:1,2008-05-10T19:00:00Z,26.5255,-82.0032,2.46,37.74,1111122 
SCCF RECON,ioos:station:SCCF:13:1,2008-05-10T20:00:00Z,26.5255,-82.0032,2.515,37.74,1111122 
SCCF RECON,ioos:station:SCCF:13:1,2008-05-10T21:00:00Z,26.5255,-82.0032,2.53,37.74,1111122 
SCCF RECON,ioos:station:SCCF:13:1,2008-05-10T22:00:00Z,26.5255,-82.0032,2.52,37.73,1111122 
SCCF RECON,ioos:station:SCCF:13:1,2008-05-10T23:00:00Z,26.5255,-82.0032,2.476,37.73,1111122 
SCCF RECON,ioos:station:SCCF:13:1,2008-05-11T00:00:00Z,26.5255,-82.0032,2.41,37.73,1111122 
SCCF RECON,ioos:station:SCCF:13:1,2008-05-11T01:00:00Z,26.5255,-82.0032,2.333,37.69,1111122 
SCCF RECON,ioos:station:SCCF:13:1,2008-05-11T02:00:00Z,26.5255,-82.0032,2.258,37.71,1111122 
SCCF RECON,ioos:station:SCCF:13:1,2008-05-11T03:00:00Z,26.5255,-82.0032,2.17,37.75,1111122 
SCCF RECON,ioos:station:SCCF:13:1,2008-05-11T04:00:00Z,26.5255,-82.0032,2.08,37.4,1111122 
SCCF RECON,ioos:station:SCCF:13:1,2008-05-11T05:00:00Z,26.5255,-82.0032,2.0,36.86,1111122 
SCCF RECON,ioos:station:SCCF:13:1,2008-05-11T06:00:00Z,26.5255,-82.0032,1.96,36.21,1111122 
SCCF RECON,ioos:station:SCCF:13:1,2008-05-11T07:00:00Z,26.5255,-82.0032,2.01,35.69,1111122 
SCCF RECON,ioos:station:SCCF:13:1,2008-05-11T08:00:00Z,26.5255,-82.0032,2.11,35.19,1111122 
SCCF RECON,ioos:station:SCCF:13:1,2008-05-11T09:00:00Z,26.5255,-82.0032,2.18,35.13,1111122 
SCCF RECON,ioos:station:SCCF:13:1,2008-05-11T10:00:00Z,26.5255,-82.0032,2.22,36.44,1111122 
SCCF RECON,ioos:station:SCCF:13:1,2008-05-11T11:00:00Z,26.5255,-82.0032,2.27,36.6,1111122 
SCCF RECON,ioos:station:SCCF:13:1,2008-05-11T12:00:00Z,26.5255,-82.0032,2.33,37.05,1111122 
SCCF RECON,ioos:station:SCCF:13:1,2008-05-11T13:00:00Z,26.5255,-82.0032,2.357,37.71,1111122 
SCCF RECON,ioos:station:SCCF:13:1,2008-05-11T14:00:00Z,26.5255,-82.0032,2.36,37.72,1111122 
SCCF RECON,ioos:station:SCCF:13:1,2008-05-11T15:00:00Z,26.5255,-82.0032,2.363,37.73,1111122 
SCCF RECON,ioos:station:SCCF:13:1,2008-05-11T16:00:00Z,26.5255,-82.0032,2.329,37.72,1111122 
SCCF RECON,ioos:station:SCCF:13:1,2008-05-11T17:00:00Z,26.5255,-82.0032,2.291,37.72,1111122 
SCCF RECON,ioos:station:SCCF:13:1,2008-05-11T18:00:00Z,26.5255,-82.0032,2.287,37.72,1111122 